Regional Weather Roundup
Issued by NWS

Home | Current Version | Previous Version | Graphics & Text | Print | Product List | Glossary On
Versions: 1 2 3 4 5 6 7 8 9 10 11 12 13 14 15 16 17 18 19 20 21 22 23 24 25 26 27 28 29 30 31 32 33 34 35 36 37 38 39 40 41 42 43 44 45 46 47 48 49 50
000
ASUS43 KLOT 191812
RWRIL

ILLINOIS REGIONAL WEATHER ROUNDUP
NATIONAL WEATHER SERVICE CHICAGO/ROMEOVILLE IL
100 PM CDT SUN APR 19 2015

NOTE: "FAIR" INDICATES FEW OR NO CLOUDS BELOW 12,000 FEET WITH NO
SIGNIFICANT WEATHER AND/OR OBSTRUCTIONS TO VISIBILITY.

* THESE STATIONS ARE NOT UNDER NWS QUALITY CONTROL. THEY ALSO MAY NOT
  REPORT WEATHER SUCH AS PRECIPITATION OR FOG.

ILZ001-002-007-009-015-016-024-191900-
NORTHWEST ILLINOIS

CITY           SKY/WX    TMP DP  RH WIND       PRES   REMARKS
MOLINE         MOSUNNY   76  47  35 E10       29.59F
6HR MIN TEMP:  53; 6HR MAX TEMP:  76;

STERLING*      MOSUNNY   75  46  35 SE12G20   29.62F
SAVANNA*       MOSUNNY   76  42  30 E9        29.62F
$$

ILZ003-004-008-010-011-017-018-191900-
NORTH CENTRAL ILLINOIS

CITY           SKY/WX    TMP DP  RH WIND       PRES   REMARKS
ROCKFORD       PTSUNNY   75  43  31 SE14      29.65F
6HR MIN TEMP:  53; 6HR MAX TEMP:  76;

FREEPORT*      MOSUNNY   73  43  33 SE9G20    29.65F
ROCHELLE*      MOSUNNY   72  43  34 SE16      29.64F
DE KALB*       PTSUNNY   70  42  36 SE12      29.66F
PERU*          CLOUDY    66  43  42 SE13      29.64F
$$

ILZ005-006-012>014-019>023-191900-
NORTHEAST ILLINOIS

CITY           SKY/WX    TMP DP  RH WIND       PRES   REMARKS
CHICAGO-OHARE  PTSUNNY   66  38  35 E10       29.67F
6HR MIN TEMP:  52; 6HR MAX TEMP:  67;

CHICAGO-MIDWAY PTSUNNY   68  40  35 E12       29.66F
6HR MIN TEMP:  55; 6HR MAX TEMP:  69;

AURORA         PTSUNNY   70  41  34 E14       29.65F
6HR MIN TEMP:  53; 6HR MAX TEMP:  73;

LANSING*       CLOUDY    70  38  31 SE14G22   29.66F
JOLIET*        CLOUDY    70  44  38 SE10      29.65F
WAUKEGAN       SUNNY     58  34  40 E14       29.71F
6HR MIN TEMP:  44; 6HR MAX TEMP:  58;

DUPAGE AIRPORT MOSUNNY   70  42  36 E10       29.65F
6HR MIN TEMP:  52; 6HR MAX TEMP:  71;

KANKAKEE*      DRIZZLE   62  50  66 SE12      29.66F
WHEELING       PTSUNNY   63  37  38 VRB7      29.70F
6HR MIN TEMP:  49; 6HR MAX TEMP:  63;

MORRIS*        CLOUDY    67  41  38 SE10      29.64F
ROMEOVILLE*    CLOUDY    71  39  31 SE10      29.64F
NORTHERLY ISL    N/A     54  39  57 MISG        N/A
$$

LMZ740>746-191900-
SOUTHERN LAKE MICHIGAN

STATION/POSITION SKY/WX   TEMP    WIND        PRES    VSBY  WAVE
                          AIR SEA DIR/SP/G                  HT/PER
                          (F)     (DEG/KT/KT) (MB)    (MI)  (FT/S)
HARRISON CRIB              46      10/  8/  9   N/A
BURNHAM HARBOR             55      50/  3/ 10   N/A
CALUMET HARBOR             57      20/  7/ 10   N/A
BURNS HARBOR               70     100/ 16/ 25 1006.1F
MICHIGAN CITY              69      90/ 14/ 20   N/A
MICHIGAN CITY 6N           60 44  130/ 14/ 16   N/A           2/ 4
$$

ILZ025>027-034>036-040-047-049-050-058-095>099-191900-
WEST-CENTRAL ILLINOIS

CITY           SKY/WX    TMP DP  RH WIND       PRES   REMARKS
QUINCY         CLOUDY    69  53  56 W8        29.58F
GALESBURG*     PTSUNNY   72  51  46 E9        29.60F
MACOMB*        PTSUNNY   69  52  54 E15       29.62F
JACKSONVILLE*  LGT RAIN  62  58  87 NE10      29.60F
PITTSFIELD*    LGT RAIN  69  56  63 E6        29.59F
$$

ILZ028>032-037-038-041>044-048-051>054-059>061-191900-
CENTRAL ILLINOIS

CITY           SKY/WX    TMP DP  RH WIND       PRES   REMARKS
PONTIAC        LGT RAIN  58  55  87 SE13      29.65F
BLOOMINGTON    LGT RAIN  57  55  93 E7        29.63F FOG
DECATUR        HVY RAIN  57  55  93 NE14      29.59F FOG
PEORIA         LGT RAIN  64  51  62 E8        29.63F
6HR MIN TEMP:  58; 6HR MAX TEMP:  66; 6HR PCP: TRACE;

LACON*         DRIZZLE   63  48  58 SE7       29.63F
LINCOLN*       LGT RAIN  59  55  89 E7        29.60F
SPRINGFIELD    LGT RAIN  59  56  89 NE10      29.60F FOG
6HR MIN TEMP:  56; 6HR MAX TEMP:  63; 6HR PCP:  0.12;

TAYLORVILLE    CLOUDY    57  55  94 NE7       29.57F
$$

ILZ033-039-045-046-055>057-062-063-191900-
EAST-CENTRAL ILLINOIS

CITY           SKY/WX    TMP DP  RH WIND       PRES   REMARKS
CHAMPAIGN      RAIN      57  54  89 NE14      29.59F FOG
DANVILLE*      RAIN      54  52  91 NE13      29.59F
RANTOUL*       LGT RAIN  57  54  89 NE10      29.62F
MATTOON        LGT RAIN  58  58 100 E7        29.56F FOG
PARIS*         LGT RAIN  57  56  97 E10       29.60F
$$

ILZ079-100>102-191900-
SOUTHWEST ILLINOIS

CITY           SKY/WX    TMP DP  RH WIND       PRES   REMARKS
BELLEVILLE     HVY RAIN  61  61 100 N7        29.55F FOG
CAHOKIA*       LGT RAIN  64  59  83 N7        29.56F
SPARTA*        RAIN      60  59  97 NW3       29.58S
$$

ILZ064>066-069>071-074>076-080>082-084>086-088>090-092>094-191900-
SOUTH-CENTRAL ILLINOIS

CITY           SKY/WX    TMP DP  RH WIND       PRES   REMARKS
CARBONDALE     CLOUDY    65  62  90 CALM      29.54F
6HR MIN TEMP:  60; 6HR MAX TEMP:  65; 6HR PCP:  0.38;

CAIRO*         CLOUDY    69  65  87 SW8       29.55F
EFFINGHAM*     RAIN      59  56  91 NE6       29.57F
MARION         LGT RAIN  66  64  94 SE6       29.55F
MT. VERNON     CLOUDY    61  55  82 CALM      29.56F
CENTRALIA*     DRIZZLE   61  58  88 CALM      29.56F
SALEM*         CLOUDY    62  58  89 CALM      29.56F FOG
METROPOLIS*    RAIN      67  67 100 S3        29.54F
$$

ILZ067-068-072-073-078-083-087-091-191900-
SOUTHEAST ILLINOIS

CITY           SKY/WX    TMP DP  RH WIND       PRES   REMARKS
LAWRENCEVILLE  LGT RAIN  61  60  97 E3        29.56F FOG
FLORA*         RAIN      61  60  97 E5        29.55F
FAIRFIELD*     LGT RAIN  62  62  99 SE5       29.54F
HARRISBURG*    CLOUDY    65  65 100 CALM      29.55F
ROBINSON*      HVY RAIN  60  59  98 E7        29.63R
CARMI*         CLOUDY    65  60  84 SE9       29.54F
$$

ABBREVIATIONS USED IN REMARKS
   TC - TEMPERATURE IN CELSIUS
  WCI - WIND CHILL INDEX
   HX - HEAT INDEX
  VSB - VISIBILITY
$$




USA.gov is the U.S. government's official web portal to all federal, state and local government web resources and services.